Shizuku

operational
NORAD ID: 38337 Int'l Des: 2012-025 Owner: JAXA Country: J
LEOCIRCULARRETROGRADESSO

关于 Shizuku

正在加载描述...

实时位置

正在加载3D地球...

即将过境

高度历史

Altitude vs Time

uPlot chart will show altitude changes over time

两行轨道根数

1 38337U 12025A 26062.43014228 .00000846 00000-0 19783-3 0 9993
2 38337 98.2049 4.5851 0001519 76.0003 42.7147 14.57087195733637
Epoch: Mar 3, 2026 • Age: 25 hours

当前状态

高度 705.5 km
速度 7.51 km/s
星下点 25.19°N, 7.44°E
发射日期 May 17, 2012
运行时间 13.7 years
类型 other

技术详情

分类 Payload
质量 1991.00 kg
干质量 1841.00 kg
总质量 1991.00 kg
长度 5.10 m
直径 3.40 m
跨度 17.50 m
形状 Box +2 pan + dish
制造商 NECTF
平台类型 GCOM
阶段状态 In Orbit
所有者/国家 JAXA/J

大型星座

Loading constellations...